User: anonymous   Login
Location: Unspecified
(0.0000°N, 0.0000°E)
Time: 11:03:11
(UTC+00:00)
Language:

ZACube-1 - Orbit

View from above orbital plane
View from above orbital plane
View from above satellite
View from above satellite

Ground track
Ground track

The orbit data is extracted from the following two-line orbital elements,

1 39417U 13066B   17352.16401663  .00000323  00000-0  47216-4 0  9997
2 39417  97.6082  25.2711 0059843  29.3040 331.1507 14.80842963220002
Epoch (UTC): 18 December 2017 03:56:11
Eccentricity: 0.0059843
inclination: 97.6082°
perigee height: 585 km
apogee height: 668 km
right ascension of ascending node: 25.2711°
argument of perigee: 29.3040°
revolutions per day: 14.80842963
mean anomaly at epoch: 331.1507°
orbit number at epoch: 22000

The dashed part of the orbit path shows where the satellite is in the earth's shadow,  

DLR